owner,sensor,date,latitude,longitude,air_pressure(mBar),qcFlag 
WAVCIS,ioos:station:WAVCIS:CSI16:1,2009-07-01T00:00:00Z,29.4012,-89.0355,1005.834,11111222 
WAVCIS,ioos:station:WAVCIS:CSI16:1,2009-07-01T01:00:00Z,29.4012,-89.0355,1006.245,11111222 
WAVCIS,ioos:station:WAVCIS:CSI16:1,2009-07-01T02:00:00Z,29.4012,-89.0355,1006.221,11111222 
WAVCIS,ioos:station:WAVCIS:CSI16:1,2009-07-01T03:00:00Z,29.4012,-89.0355,1006.425,11111222 
WAVCIS,ioos:station:WAVCIS:CSI16:1,2009-07-01T04:00:00Z,29.4012,-89.0355,1006.842,11111222 
WAVCIS,ioos:station:WAVCIS:CSI16:1,2009-07-01T05:00:00Z,29.4012,-89.0355,1007.05,11111222 
WAVCIS,ioos:station:WAVCIS:CSI16:1,2009-07-01T06:00:00Z,29.4012,-89.0355,1006.551,11111222 
WAVCIS,ioos:station:WAVCIS:CSI16:1,2009-07-01T07:00:00Z,29.4012,-89.0355,1006.555,11111222 
WAVCIS,ioos:station:WAVCIS:CSI16:1,2009-07-01T08:00:00Z,29.4012,-89.0355,1006.348,11111222 
WAVCIS,ioos:station:WAVCIS:CSI16:1,2009-07-01T09:00:00Z,29.4012,-89.0355,1006.299,11111222 
WAVCIS,ioos:station:WAVCIS:CSI16:1,2009-07-01T10:00:00Z,29.4012,-89.0355,1006.293,11111222 
WAVCIS,ioos:station:WAVCIS:CSI16:1,2009-07-01T11:00:00Z,29.4012,-89.0355,1006.795,11111222 
WAVCIS,ioos:station:WAVCIS:CSI16:1,2009-07-01T12:00:00Z,29.4012,-89.0355,1007.73,11111222 
WAVCIS,ioos:station:WAVCIS:CSI16:1,2009-07-01T13:00:00Z,29.4012,-89.0355,1008.71,11111222 
WAVCIS,ioos:station:WAVCIS:CSI16:1,2009-07-01T14:00:00Z,29.4012,-89.0355,1009.28,11111222 
WAVCIS,ioos:station:WAVCIS:CSI16:1,2009-07-01T15:00:00Z,29.4012,-89.0355,1009.35,11111222 
WAVCIS,ioos:station:WAVCIS:CSI16:1,2009-07-01T16:00:00Z,29.4012,-89.0355,1009.39,11111222 
WAVCIS,ioos:station:WAVCIS:CSI16:1,2009-07-01T17:00:00Z,29.4012,-89.0355,1009.48,11111222 
WAVCIS,ioos:station:WAVCIS:CSI16:1,2009-07-01T18:00:00Z,29.4012,-89.0355,1009.26,11111222 
WAVCIS,ioos:station:WAVCIS:CSI16:1,2009-07-01T19:00:00Z,29.4012,-89.0355,1009.22,11111222 
WAVCIS,ioos:station:WAVCIS:CSI16:1,2009-07-01T20:00:00Z,29.4012,-89.0355,1008.99,11111222 
WAVCIS,ioos:station:WAVCIS:CSI16:1,2009-07-01T21:00:00Z,29.4012,-89.0355,1009.18,11111222 
WAVCIS,ioos:station:WAVCIS:CSI16:1,2009-07-01T22:00:00Z,29.4012,-89.0355,1009.0,11111222 
WAVCIS,ioos:station:WAVCIS:CSI16:1,2009-07-01T23:00:00Z,29.4012,-89.0355,1008.57,11111222 
WAVCIS,ioos:station:WAVCIS:CSI16:1,2009-07-02T00:00:00Z,29.4012,-89.0355,1008.72,11111222 
WAVCIS,ioos:station:WAVCIS:CSI16:1,2009-07-02T01:00:00Z,29.4012,-89.0355,1009.04,11111222 
WAVCIS,ioos:station:WAVCIS:CSI16:1,2009-07-02T02:00:00Z,29.4012,-89.0355,1009.78,11111222 
WAVCIS,ioos:station:WAVCIS:CSI16:1,2009-07-02T03:00:00Z,29.4012,-89.0355,1010.13,11111222 
WAVCIS,ioos:station:WAVCIS:CSI16:1,2009-07-02T04:00:00Z,29.4012,-89.0355,1010.3,11111222 
WAVCIS,ioos:station:WAVCIS:CSI16:1,2009-07-02T05:00:00Z,29.4012,-89.0355,1010.19,11111222 
WAVCIS,ioos:station:WAVCIS:CSI16:1,2009-07-02T06:00:00Z,29.4012,-89.0355,1010.08,11111222 
WAVCIS,ioos:station:WAVCIS:CSI16:1,2009-07-02T07:00:00Z,29.4012,-89.0355,1009.65,11111222 
WAVCIS,ioos:station:WAVCIS:CSI16:1,2009-07-02T08:00:00Z,29.4012,-89.0355,1009.6,11111222 
WAVCIS,ioos:station:WAVCIS:CSI16:1,2009-07-02T09:00:00Z,29.4012,-89.0355,1010.08,11111222 
WAVCIS,ioos:station:WAVCIS:CSI16:1,2009-07-02T10:00:00Z,29.4012,-89.0355,1010.63,11111222 
WAVCIS,ioos:station:WAVCIS:CSI16:1,2009-07-02T11:00:00Z,29.4012,-89.0355,1011.09,11111222 
WAVCIS,ioos:station:WAVCIS:CSI16:1,2009-07-02T12:00:00Z,29.4012,-89.0355,1011.49,11111222 
WAVCIS,ioos:station:WAVCIS:CSI16:1,2009-07-02T13:00:00Z,29.4012,-89.0355,1012.27,11111222 
WAVCIS,ioos:station:WAVCIS:CSI16:1,2009-07-02T14:00:00Z,29.4012,-89.0355,1012.92,11111222 
WAVCIS,ioos:station:WAVCIS:CSI16:1,2009-07-02T15:00:00Z,29.4012,-89.0355,1013.24,11111222 
WAVCIS,ioos:station:WAVCIS:CSI16:1,2009-07-02T16:00:00Z,29.4012,-89.0355,1013.73,11111222 
WAVCIS,ioos:station:WAVCIS:CSI16:1,2009-07-02T17:00:00Z,29.4012,-89.0355,1014.2,11111222 
WAVCIS,ioos:station:WAVCIS:CSI16:1,2009-07-02T18:00:00Z,29.4012,-89.0355,1014.25,11111222 
WAVCIS,ioos:station:WAVCIS:CSI16:1,2009-07-02T19:00:00Z,29.4012,-89.0355,1013.92,11111222 
WAVCIS,ioos:station:WAVCIS:CSI16:1,2009-07-02T20:00:00Z,29.4012,-89.0355,1013.73,11111222 
WAVCIS,ioos:station:WAVCIS:CSI16:1,2009-07-02T21:00:00Z,29.4012,-89.0355,1013.02,11111222 
WAVCIS,ioos:station:WAVCIS:CSI16:1,2009-07-02T22:00:00Z,29.4012,-89.0355,1012.74,11111222 
WAVCIS,ioos:station:WAVCIS:CSI16:1,2009-07-02T23:00:00Z,29.4012,-89.0355,1012.26,11111222 
WAVCIS,ioos:station:WAVCIS:CSI16:1,2009-07-03T00:00:00Z,29.4012,-89.0355,1012.27,11111222 
WAVCIS,ioos:station:WAVCIS:CSI16:1,2009-07-03T01:00:00Z,29.4012,-89.0355,1012.87,11111222 
WAVCIS,ioos:station:WAVCIS:CSI16:1,2009-07-03T02:00:00Z,29.4012,-89.0355,1013.03,11111222 
WAVCIS,ioos:station:WAVCIS:CSI16:1,2009-07-03T03:00:00Z,29.4012,-89.0355,1013.19,11111222 
WAVCIS,ioos:station:WAVCIS:CSI16:1,2009-07-03T04:00:00Z,29.4012,-89.0355,1013.53,11111222 
WAVCIS,ioos:station:WAVCIS:CSI16:1,2009-07-03T05:00:00Z,29.4012,-89.0355,1014.0,11111222 
WAVCIS,ioos:station:WAVCIS:CSI16:1,2009-07-03T06:00:00Z,29.4012,-89.0355,1013.42,11111222 
WAVCIS,ioos:station:WAVCIS:CSI16:1,2009-07-03T07:00:00Z,29.4012,-89.0355,1013.23,11111222 
WAVCIS,ioos:station:WAVCIS:CSI16:1,2009-07-03T08:00:00Z,29.4012,-89.0355,1013.23,11111222 
WAVCIS,ioos:station:WAVCIS:CSI16:1,2009-07-03T09:00:00Z,29.4012,-89.0355,1013.62,11111222 
WAVCIS,ioos:station:WAVCIS:CSI16:1,2009-07-03T10:00:00Z,29.4012,-89.0355,1014.22,11111222 
WAVCIS,ioos:station:WAVCIS:CSI16:1,2009-07-03T11:00:00Z,29.4012,-89.0355,1015.23,11111222 
WAVCIS,ioos:station:WAVCIS:CSI16:1,2009-07-03T12:00:00Z,29.4012,-89.0355,1015.67,11111222 
WAVCIS,ioos:station:WAVCIS:CSI16:1,2009-07-03T13:00:00Z,29.4012,-89.0355,1016.07,11111222 
WAVCIS,ioos:station:WAVCIS:CSI16:1,2009-07-03T14:00:00Z,29.4012,-89.0355,1016.63,11111222 
WAVCIS,ioos:station:WAVCIS:CSI16:1,2009-07-03T15:00:00Z,29.4012,-89.0355,1016.37,11111222 
WAVCIS,ioos:station:WAVCIS:CSI16:1,2009-07-03T16:00:00Z,29.4012,-89.0355,1016.62,11111222 
WAVCIS,ioos:station:WAVCIS:CSI16:1,2009-07-03T17:00:00Z,29.4012,-89.0355,1016.76,11111222 
WAVCIS,ioos:station:WAVCIS:CSI16:1,2009-07-03T18:00:00Z,29.4012,-89.0355,1016.61,11111222 
WAVCIS,ioos:station:WAVCIS:CSI16:1,2009-07-03T19:00:00Z,29.4012,-89.0355,1016.08,11111222 
WAVCIS,ioos:station:WAVCIS:CSI16:1,2009-07-03T20:00:00Z,29.4012,-89.0355,1015.67,11111222 
WAVCIS,ioos:station:WAVCIS:CSI16:1,2009-07-03T21:00:00Z,29.4012,-89.0355,1015.13,11111222 
WAVCIS,ioos:station:WAVCIS:CSI16:1,2009-07-03T22:00:00Z,29.4012,-89.0355,1014.88,11111222 
WAVCIS,ioos:station:WAVCIS:CSI16:1,2009-07-03T23:00:00Z,29.4012,-89.0355,1014.82,11111222 
WAVCIS,ioos:station:WAVCIS:CSI16:1,2009-07-04T00:00:00Z,29.4012,-89.0355,1015.01,11111222 
WAVCIS,ioos:station:WAVCIS:CSI16:1,2009-07-04T01:00:00Z,29.4012,-89.0355,1015.37,11111222 
WAVCIS,ioos:station:WAVCIS:CSI16:1,2009-07-04T02:00:00Z,29.4012,-89.0355,1015.17,11111222 
WAVCIS,ioos:station:WAVCIS:CSI16:1,2009-07-04T03:00:00Z,29.4012,-89.0355,1015.51,11111222 
WAVCIS,ioos:station:WAVCIS:CSI16:1,2009-07-04T04:00:00Z,29.4012,-89.0355,1015.37,11111222 
WAVCIS,ioos:station:WAVCIS:CSI16:1,2009-07-04T05:00:00Z,29.4012,-89.0355,1015.0,11111222 
WAVCIS,ioos:station:WAVCIS:CSI16:1,2009-07-04T06:00:00Z,29.4012,-89.0355,1014.48,11111222 
WAVCIS,ioos:station:WAVCIS:CSI16:1,2009-07-04T07:00:00Z,29.4012,-89.0355,1014.01,11111222 
WAVCIS,ioos:station:WAVCIS:CSI16:1,2009-07-04T08:00:00Z,29.4012,-89.0355,1014.04,11111222 
WAVCIS,ioos:station:WAVCIS:CSI16:1,2009-07-04T09:00:00Z,29.4012,-89.0355,1014.3,11111222 
WAVCIS,ioos:station:WAVCIS:CSI16:1,2009-07-04T10:00:00Z,29.4012,-89.0355,1014.87,11111222 
WAVCIS,ioos:station:WAVCIS:CSI16:1,2009-07-04T11:00:00Z,29.4012,-89.0355,1015.13,11111222 
WAVCIS,ioos:station:WAVCIS:CSI16:1,2009-07-04T12:00:00Z,29.4012,-89.0355,1015.44,11111222 
WAVCIS,ioos:station:WAVCIS:CSI16:1,2009-07-04T13:00:00Z,29.4012,-89.0355,1015.66,11111222 
WAVCIS,ioos:station:WAVCIS:CSI16:1,2009-07-04T14:00:00Z,29.4012,-89.0355,1016.3,11111222 
WAVCIS,ioos:station:WAVCIS:CSI16:1,2009-07-04T15:00:00Z,29.4012,-89.0355,1016.36,11111222 
WAVCIS,ioos:station:WAVCIS:CSI16:1,2009-07-04T16:00:00Z,29.4012,-89.0355,1016.1,11111222 
WAVCIS,ioos:station:WAVCIS:CSI16:1,2009-07-04T17:00:00Z,29.4012,-89.0355,1015.79,11111222 
WAVCIS,ioos:station:WAVCIS:CSI16:1,2009-07-04T18:00:00Z,29.4012,-89.0355,1015.68,11111222 
WAVCIS,ioos:station:WAVCIS:CSI16:1,2009-07-04T19:00:00Z,29.4012,-89.0355,1015.08,11111222 
WAVCIS,ioos:station:WAVCIS:CSI16:1,2009-07-04T20:00:00Z,29.4012,-89.0355,1014.79,11111222 
WAVCIS,ioos:station:WAVCIS:CSI16:1,2009-07-04T21:00:00Z,29.4012,-89.0355,1013.87,11111222 
WAVCIS,ioos:station:WAVCIS:CSI16:1,2009-07-04T22:00:00Z,29.4012,-89.0355,1013.75,11111222 
WAVCIS,ioos:station:WAVCIS:CSI16:1,2009-07-04T23:00:00Z,29.4012,-89.0355,1012.7,11111222 
WAVCIS,ioos:station:WAVCIS:CSI16:1,2009-07-05T00:00:00Z,29.4012,-89.0355,1013.04,11111222 
WAVCIS,ioos:station:WAVCIS:CSI16:1,2009-07-05T01:00:00Z,29.4012,-89.0355,1013.09,11111222 
WAVCIS,ioos:station:WAVCIS:CSI16:1,2009-07-05T02:00:00Z,29.4012,-89.0355,1012.54,11111222 
WAVCIS,ioos:station:WAVCIS:CSI16:1,2009-07-05T03:00:00Z,29.4012,-89.0355,1012.29,11111222 
WAVCIS,ioos:station:WAVCIS:CSI16:1,2009-07-05T04:00:00Z,29.4012,-89.0355,1012.71,11111222 
WAVCIS,ioos:station:WAVCIS:CSI16:1,2009-07-05T05:00:00Z,29.4012,-89.0355,1012.66,11111222 
WAVCIS,ioos:station:WAVCIS:CSI16:1,2009-07-05T06:00:00Z,29.4012,-89.0355,1012.52,11111222 
WAVCIS,ioos:station:WAVCIS:CSI16:1,2009-07-05T07:00:00Z,29.4012,-89.0355,1012.48,11111222 
WAVCIS,ioos:station:WAVCIS:CSI16:1,2009-07-05T08:00:00Z,29.4012,-89.0355,1011.86,11111222 
WAVCIS,ioos:station:WAVCIS:CSI16:1,2009-07-05T09:00:00Z,29.4012,-89.0355,1011.68,11111222 
WAVCIS,ioos:station:WAVCIS:CSI16:1,2009-07-05T10:00:00Z,29.4012,-89.0355,1011.68,11111222 
WAVCIS,ioos:station:WAVCIS:CSI16:1,2009-07-05T11:00:00Z,29.4012,-89.0355,1012.22,11111222 
WAVCIS,ioos:station:WAVCIS:CSI16:1,2009-07-05T12:00:00Z,29.4012,-89.0355,1012.52,11111222 
WAVCIS,ioos:station:WAVCIS:CSI16:1,2009-07-05T13:00:00Z,29.4012,-89.0355,1013.0,11111222 
WAVCIS,ioos:station:WAVCIS:CSI16:1,2009-07-05T14:00:00Z,29.4012,-89.0355,1013.49,11111222 
WAVCIS,ioos:station:WAVCIS:CSI16:1,2009-07-05T15:00:00Z,29.4012,-89.0355,1013.44,11111222 
WAVCIS,ioos:station:WAVCIS:CSI16:1,2009-07-05T16:00:00Z,29.4012,-89.0355,1013.18,11111222 
WAVCIS,ioos:station:WAVCIS:CSI16:1,2009-07-05T17:00:00Z,29.4012,-89.0355,1013.23,11111222 
WAVCIS,ioos:station:WAVCIS:CSI16:1,2009-07-05T18:00:00Z,29.4012,-89.0355,1013.19,11111222 
WAVCIS,ioos:station:WAVCIS:CSI16:1,2009-07-05T19:00:00Z,29.4012,-89.0355,1012.69,11111222 
WAVCIS,ioos:station:WAVCIS:CSI16:1,2009-07-05T20:00:00Z,29.4012,-89.0355,1012.03,11111222 
WAVCIS,ioos:station:WAVCIS:CSI16:1,2009-07-05T21:00:00Z,29.4012,-89.0355,1011.4,11111222 
WAVCIS,ioos:station:WAVCIS:CSI16:1,2009-07-05T22:00:00Z,29.4012,-89.0355,1011.07,11111222 
WAVCIS,ioos:station:WAVCIS:CSI16:1,2009-07-05T23:00:00Z,29.4012,-89.0355,1010.53,11111222 
WAVCIS,ioos:station:WAVCIS:CSI16:1,2009-07-06T00:00:00Z,29.4012,-89.0355,1010.45,11111222 
WAVCIS,ioos:station:WAVCIS:CSI16:1,2009-07-06T01:00:00Z,29.4012,-89.0355,1010.27,11111222 
WAVCIS,ioos:station:WAVCIS:CSI16:1,2009-07-06T02:00:00Z,29.4012,-89.0355,1010.69,11111222 
WAVCIS,ioos:station:WAVCIS:CSI16:1,2009-07-06T03:00:00Z,29.4012,-89.0355,1011.12,11111222 
WAVCIS,ioos:station:WAVCIS:CSI16:1,2009-07-06T04:00:00Z,29.4012,-89.0355,1011.38,11111222 
WAVCIS,ioos:station:WAVCIS:CSI16:1,2009-07-06T05:00:00Z,29.4012,-89.0355,1010.81,11111222 
WAVCIS,ioos:station:WAVCIS:CSI16:1,2009-07-06T06:00:00Z,29.4012,-89.0355,1010.72,11111222 
WAVCIS,ioos:station:WAVCIS:CSI16:1,2009-07-06T07:00:00Z,29.4012,-89.0355,1010.51,11111222 
WAVCIS,ioos:station:WAVCIS:CSI16:1,2009-07-06T08:00:00Z,29.4012,-89.0355,1009.96,11111222 
WAVCIS,ioos:station:WAVCIS:CSI16:1,2009-07-06T09:00:00Z,29.4012,-89.0355,1009.93,11111222 
WAVCIS,ioos:station:WAVCIS:CSI16:1,2009-07-06T10:00:00Z,29.4012,-89.0355,1010.15,11111222 
WAVCIS,ioos:station:WAVCIS:CSI16:1,2009-07-06T11:00:00Z,29.4012,-89.0355,1010.07,11111222 
WAVCIS,ioos:station:WAVCIS:CSI16:1,2009-07-06T12:00:00Z,29.4012,-89.0355,1010.15,11111222 
WAVCIS,ioos:station:WAVCIS:CSI16:1,2009-07-06T13:00:00Z,29.4012,-89.0355,1010.1,11111222 
WAVCIS,ioos:station:WAVCIS:CSI16:1,2009-07-06T14:00:00Z,29.4012,-89.0355,1010.58,11111222 
WAVCIS,ioos:station:WAVCIS:CSI16:1,2009-07-06T15:00:00Z,29.4012,-89.0355,1011.0,11111222 
WAVCIS,ioos:station:WAVCIS:CSI16:1,2009-07-06T16:00:00Z,29.4012,-89.0355,1011.13,11111222 
WAVCIS,ioos:station:WAVCIS:CSI16:1,2009-07-06T17:00:00Z,29.4012,-89.0355,1010.98,11111222 
WAVCIS,ioos:station:WAVCIS:CSI16:1,2009-07-06T18:00:00Z,29.4012,-89.0355,1011.12,11111222 
WAVCIS,ioos:station:WAVCIS:CSI16:1,2009-07-06T19:00:00Z,29.4012,-89.0355,1011.37,11111222 
WAVCIS,ioos:station:WAVCIS:CSI16:1,2009-07-06T20:00:00Z,29.4012,-89.0355,1011.11,11111222 
WAVCIS,ioos:station:WAVCIS:CSI16:1,2009-07-06T21:00:00Z,29.4012,-89.0355,1010.33,11111222 
WAVCIS,ioos:station:WAVCIS:CSI16:1,2009-07-06T22:00:00Z,29.4012,-89.0355,1009.71,11111222 
WAVCIS,ioos:station:WAVCIS:CSI16:1,2009-07-06T23:00:00Z,29.4012,-89.0355,1009.25,11111222 
WAVCIS,ioos:station:WAVCIS:CSI16:1,2009-07-07T00:00:00Z,29.4012,-89.0355,1009.12,11111222 
WAVCIS,ioos:station:WAVCIS:CSI16:1,2009-07-07T01:00:00Z,29.4012,-89.0355,1009.02,11111222 
WAVCIS,ioos:station:WAVCIS:CSI16:1,2009-07-07T02:00:00Z,29.4012,-89.0355,1008.88,11111222 
WAVCIS,ioos:station:WAVCIS:CSI16:1,2009-07-07T03:00:00Z,29.4012,-89.0355,1009.31,11111222 
WAVCIS,ioos:station:WAVCIS:CSI16:1,2009-07-07T04:00:00Z,29.4012,-89.0355,1009.55,11111222 
WAVCIS,ioos:station:WAVCIS:CSI16:1,2009-07-07T05:00:00Z,29.4012,-89.0355,1009.42,11111222 
WAVCIS,ioos:station:WAVCIS:CSI16:1,2009-07-07T06:00:00Z,29.4012,-89.0355,1009.03,11111222 
WAVCIS,ioos:station:WAVCIS:CSI16:1,2009-07-07T07:00:00Z,29.4012,-89.0355,1008.74,11111222 
WAVCIS,ioos:station:WAVCIS:CSI16:1,2009-07-07T08:00:00Z,29.4012,-89.0355,1007.93,11111222 
WAVCIS,ioos:station:WAVCIS:CSI16:1,2009-07-07T09:00:00Z,29.4012,-89.0355,1008.08,11111222 
WAVCIS,ioos:station:WAVCIS:CSI16:1,2009-07-07T10:00:00Z,29.4012,-89.0355,1008.22,11111222 
WAVCIS,ioos:station:WAVCIS:CSI16:1,2009-07-07T11:00:00Z,29.4012,-89.0355,1008.22,11111222 
WAVCIS,ioos:station:WAVCIS:CSI16:1,2009-07-07T12:00:00Z,29.4012,-89.0355,1008.48,11111222 
WAVCIS,ioos:station:WAVCIS:CSI16:1,2009-07-07T13:00:00Z,29.4012,-89.0355,1008.76,11111222 
WAVCIS,ioos:station:WAVCIS:CSI16:1,2009-07-07T14:00:00Z,29.4012,-89.0355,1009.69,11111222 
WAVCIS,ioos:station:WAVCIS:CSI16:1,2009-07-07T15:00:00Z,29.4012,-89.0355,1010.34,11111222 
WAVCIS,ioos:station:WAVCIS:CSI16:1,2009-07-07T16:00:00Z,29.4012,-89.0355,1010.84,11111222 
WAVCIS,ioos:station:WAVCIS:CSI16:1,2009-07-07T17:00:00Z,29.4012,-89.0355,1010.5,11111222 
WAVCIS,ioos:station:WAVCIS:CSI16:1,2009-07-07T18:00:00Z,29.4012,-89.0355,1009.56,11111222 
WAVCIS,ioos:station:WAVCIS:CSI16:1,2009-07-07T19:00:00Z,29.4012,-89.0355,1009.26,11111222 
WAVCIS,ioos:station:WAVCIS:CSI16:1,2009-07-07T20:00:00Z,29.4012,-89.0355,1009.01,11111222 
WAVCIS,ioos:station:WAVCIS:CSI16:1,2009-07-07T21:00:00Z,29.4012,-89.0355,1008.55,11111222 
WAVCIS,ioos:station:WAVCIS:CSI16:1,2009-07-07T22:00:00Z,29.4012,-89.0355,1008.65,11111222 
WAVCIS,ioos:station:WAVCIS:CSI16:1,2009-07-07T23:00:00Z,29.4012,-89.0355,1008.43,11111222 
WAVCIS,ioos:station:WAVCIS:CSI16:1,2009-07-08T00:00:00Z,29.4012,-89.0355,1008.05,11111222 
WAVCIS,ioos:station:WAVCIS:CSI16:1,2009-07-08T01:00:00Z,29.4012,-89.0355,1007.59,11111222 
WAVCIS,ioos:station:WAVCIS:CSI16:1,2009-07-08T02:00:00Z,29.4012,-89.0355,1007.7,11111222 
WAVCIS,ioos:station:WAVCIS:CSI16:1,2009-07-08T03:00:00Z,29.4012,-89.0355,1008.45,11111222 
WAVCIS,ioos:station:WAVCIS:CSI16:1,2009-07-08T04:00:00Z,29.4012,-89.0355,1009.04,11111222 
WAVCIS,ioos:station:WAVCIS:CSI16:1,2009-07-08T05:00:00Z,29.4012,-89.0355,1009.02,11111222 
WAVCIS,ioos:station:WAVCIS:CSI16:1,2009-07-08T06:00:00Z,29.4012,-89.0355,1008.88,11111222 
WAVCIS,ioos:station:WAVCIS:CSI16:1,2009-07-08T07:00:00Z,29.4012,-89.0355,1008.56,11111222 
WAVCIS,ioos:station:WAVCIS:CSI16:1,2009-07-08T08:00:00Z,29.4012,-89.0355,1008.2,11111222 
WAVCIS,ioos:station:WAVCIS:CSI16:1,2009-07-08T09:00:00Z,29.4012,-89.0355,1008.14,11111222 
WAVCIS,ioos:station:WAVCIS:CSI16:1,2009-07-08T10:00:00Z,29.4012,-89.0355,1007.95,11111222 
WAVCIS,ioos:station:WAVCIS:CSI16:1,2009-07-08T11:00:00Z,29.4012,-89.0355,1007.84,11111222 
WAVCIS,ioos:station:WAVCIS:CSI16:1,2009-07-08T12:00:00Z,29.4012,-89.0355,1008.69,11111222 
WAVCIS,ioos:station:WAVCIS:CSI16:1,2009-07-08T13:00:00Z,29.4012,-89.0355,1009.33,11111222 
WAVCIS,ioos:station:WAVCIS:CSI16:1,2009-07-08T14:00:00Z,29.4012,-89.0355,1010.31,11111222 
WAVCIS,ioos:station:WAVCIS:CSI16:1,2009-07-08T15:00:00Z,29.4012,-89.0355,1010.24,11111222 
WAVCIS,ioos:station:WAVCIS:CSI16:1,2009-07-08T16:00:00Z,29.4012,-89.0355,1010.6,11111222 
WAVCIS,ioos:station:WAVCIS:CSI16:1,2009-07-08T17:00:00Z,29.4012,-89.0355,1010.72,11111222 
WAVCIS,ioos:station:WAVCIS:CSI16:1,2009-07-08T18:00:00Z,29.4012,-89.0355,1010.75,11111222 
WAVCIS,ioos:station:WAVCIS:CSI16:1,2009-07-08T19:00:00Z,29.4012,-89.0355,1010.21,11111222 
WAVCIS,ioos:station:WAVCIS:CSI16:1,2009-07-08T20:00:00Z,29.4012,-89.0355,1009.84,11111222 
WAVCIS,ioos:station:WAVCIS:CSI16:1,2009-07-08T21:00:00Z,29.4012,-89.0355,1010.02,11111222 
WAVCIS,ioos:station:WAVCIS:CSI16:1,2009-07-08T22:00:00Z,29.4012,-89.0355,1009.44,11111222 
WAVCIS,ioos:station:WAVCIS:CSI16:1,2009-07-08T23:00:00Z,29.4012,-89.0355,1009.77,11111222 
WAVCIS,ioos:station:WAVCIS:CSI16:1,2009-07-09T00:00:00Z,29.4012,-89.0355,1009.12,11111222 
WAVCIS,ioos:station:WAVCIS:CSI16:1,2009-07-09T01:00:00Z,29.4012,-89.0355,1009.45,11111222 
WAVCIS,ioos:station:WAVCIS:CSI16:1,2009-07-09T02:00:00Z,29.4012,-89.0355,1010.19,11111222 
WAVCIS,ioos:station:WAVCIS:CSI16:1,2009-07-09T03:00:00Z,29.4012,-89.0355,1010.69,11111222 
WAVCIS,ioos:station:WAVCIS:CSI16:1,2009-07-09T04:00:00Z,29.4012,-89.0355,1011.09,11111222 
WAVCIS,ioos:station:WAVCIS:CSI16:1,2009-07-09T05:00:00Z,29.4012,-89.0355,1011.34,11111222 
WAVCIS,ioos:station:WAVCIS:CSI16:1,2009-07-09T06:00:00Z,29.4012,-89.0355,1011.15,11111222 
WAVCIS,ioos:station:WAVCIS:CSI16:1,2009-07-09T07:00:00Z,29.4012,-89.0355,1010.85,11111222 
WAVCIS,ioos:station:WAVCIS:CSI16:1,2009-07-09T08:00:00Z,29.4012,-89.0355,1010.48,11111222 
WAVCIS,ioos:station:WAVCIS:CSI16:1,2009-07-09T09:00:00Z,29.4012,-89.0355,1010.46,11111222 
WAVCIS,ioos:station:WAVCIS:CSI16:1,2009-07-09T10:00:00Z,29.4012,-89.0355,1011.04,11111222 
WAVCIS,ioos:station:WAVCIS:CSI16:1,2009-07-09T11:00:00Z,29.4012,-89.0355,1011.84,11111222 
WAVCIS,ioos:station:WAVCIS:CSI16:1,2009-07-09T12:00:00Z,29.4012,-89.0355,1012.43,11111222 
WAVCIS,ioos:station:WAVCIS:CSI16:1,2009-07-09T13:00:00Z,29.4012,-89.0355,1012.76,11111222 
WAVCIS,ioos:station:WAVCIS:CSI16:1,2009-07-09T14:00:00Z,29.4012,-89.0355,1013.22,11111222 
WAVCIS,ioos:station:WAVCIS:CSI16:1,2009-07-09T15:00:00Z,29.4012,-89.0355,1013.76,11111222 
WAVCIS,ioos:station:WAVCIS:CSI16:1,2009-07-09T16:00:00Z,29.4012,-89.0355,1014.24,11111222 
WAVCIS,ioos:station:WAVCIS:CSI16:1,2009-07-09T17:00:00Z,29.4012,-89.0355,1014.55,11111222 
WAVCIS,ioos:station:WAVCIS:CSI16:1,2009-07-09T18:00:00Z,29.4012,-89.0355,1014.9,11111222 
WAVCIS,ioos:station:WAVCIS:CSI16:1,2009-07-09T19:00:00Z,29.4012,-89.0355,1015.0,11111222 
WAVCIS,ioos:station:WAVCIS:CSI16:1,2009-07-09T20:00:00Z,29.4012,-89.0355,1013.8,11111222 
WAVCIS,ioos:station:WAVCIS:CSI16:1,2009-07-09T21:00:00Z,29.4012,-89.0355,1013.94,11111222 
WAVCIS,ioos:station:WAVCIS:CSI16:1,2009-07-09T22:00:00Z,29.4012,-89.0355,1013.55,11111222 
WAVCIS,ioos:station:WAVCIS:CSI16:1,2009-07-09T23:00:00Z,29.4012,-89.0355,1013.23,11111222 
WAVCIS,ioos:station:WAVCIS:CSI16:1,2009-07-10T00:00:00Z,29.4012,-89.0355,1012.98,11111222 
WAVCIS,ioos:station:WAVCIS:CSI16:1,2009-07-10T01:00:00Z,29.4012,-89.0355,1013.41,11111222 
WAVCIS,ioos:station:WAVCIS:CSI16:1,2009-07-10T02:00:00Z,29.4012,-89.0355,1014.04,11111222 
WAVCIS,ioos:station:WAVCIS:CSI16:1,2009-07-10T03:00:00Z,29.4012,-89.0355,1014.81,11111222 
WAVCIS,ioos:station:WAVCIS:CSI16:1,2009-07-10T04:00:00Z,29.4012,-89.0355,1015.24,11111222 
WAVCIS,ioos:station:WAVCIS:CSI16:1,2009-07-10T05:00:00Z,29.4012,-89.0355,1015.46,11111222 
WAVCIS,ioos:station:WAVCIS:CSI16:1,2009-07-10T06:00:00Z,29.4012,-89.0355,1015.32,11111222 
WAVCIS,ioos:station:WAVCIS:CSI16:1,2009-07-10T07:00:00Z,29.4012,-89.0355,1015.18,11111222 
WAVCIS,ioos:station:WAVCIS:CSI16:1,2009-07-10T08:00:00Z,29.4012,-89.0355,1015.22,11111222 
WAVCIS,ioos:station:WAVCIS:CSI16:1,2009-07-10T09:00:00Z,29.4012,-89.0355,1015.21,11111222 
WAVCIS,ioos:station:WAVCIS:CSI16:1,2009-07-10T10:00:00Z,29.4012,-89.0355,1015.49,11111222 
WAVCIS,ioos:station:WAVCIS:CSI16:1,2009-07-10T11:00:00Z,29.4012,-89.0355,1015.82,11111222 
WAVCIS,ioos:station:WAVCIS:CSI16:1,2009-07-10T12:00:00Z,29.4012,-89.0355,1016.26,11111222 
WAVCIS,ioos:station:WAVCIS:CSI16:1,2009-07-10T13:00:00Z,29.4012,-89.0355,1017.02,11111222 
WAVCIS,ioos:station:WAVCIS:CSI16:1,2009-07-10T14:00:00Z,29.4012,-89.0355,1017.46,11111222 
WAVCIS,ioos:station:WAVCIS:CSI16:1,2009-07-10T15:00:00Z,29.4012,-89.0355,1017.47,11111222 
WAVCIS,ioos:station:WAVCIS:CSI16:1,2009-07-10T16:00:00Z,29.4012,-89.0355,1017.81,11111222 
WAVCIS,ioos:station:WAVCIS:CSI16:1,2009-07-10T17:00:00Z,29.4012,-89.0355,1018.3,11111222 
WAVCIS,ioos:station:WAVCIS:CSI16:1,2009-07-10T18:00:00Z,29.4012,-89.0355,1018.33,11111222 
WAVCIS,ioos:station:WAVCIS:CSI16:1,2009-07-10T19:00:00Z,29.4012,-89.0355,1018.4,11111222 
WAVCIS,ioos:station:WAVCIS:CSI16:1,2009-07-10T20:00:00Z,29.4012,-89.0355,1018.2,11111222 
WAVCIS,ioos:station:WAVCIS:CSI16:1,2009-07-10T21:00:00Z,29.4012,-89.0355,1017.59,11111222 
WAVCIS,ioos:station:WAVCIS:CSI16:1,2009-07-10T22:00:00Z,29.4012,-89.0355,1017.54,11111222 
WAVCIS,ioos:station:WAVCIS:CSI16:1,2009-07-10T23:00:00Z,29.4012,-89.0355,1017.77,11111222 
WAVCIS,ioos:station:WAVCIS:CSI16:1,2009-07-11T00:00:00Z,29.4012,-89.0355,1017.31,11111222 
WAVCIS,ioos:station:WAVCIS:CSI16:1,2009-07-11T01:00:00Z,29.4012,-89.0355,1017.37,11111222 
WAVCIS,ioos:station:WAVCIS:CSI16:1,2009-07-11T02:00:00Z,29.4012,-89.0355,1018.16,11111222 
WAVCIS,ioos:station:WAVCIS:CSI16:1,2009-07-11T03:00:00Z,29.4012,-89.0355,1018.66,11111222 
WAVCIS,ioos:station:WAVCIS:CSI16:1,2009-07-11T04:00:00Z,29.4012,-89.0355,1018.79,11111222 
WAVCIS,ioos:station:WAVCIS:CSI16:1,2009-07-11T05:00:00Z,29.4012,-89.0355,1018.97,11111222 
WAVCIS,ioos:station:WAVCIS:CSI16:1,2009-07-11T06:00:00Z,29.4012,-89.0355,1018.49,11111222 
WAVCIS,ioos:station:WAVCIS:CSI16:1,2009-07-11T07:00:00Z,29.4012,-89.0355,1017.91,11111222 
WAVCIS,ioos:station:WAVCIS:CSI16:1,2009-07-11T08:00:00Z,29.4012,-89.0355,1017.52,11111222 
WAVCIS,ioos:station:WAVCIS:CSI16:1,2009-07-11T09:00:00Z,29.4012,-89.0355,1017.46,11111222 
WAVCIS,ioos:station:WAVCIS:CSI16:1,2009-07-11T10:00:00Z,29.4012,-89.0355,1017.5,11111222 
WAVCIS,ioos:station:WAVCIS:CSI16:1,2009-07-11T11:00:00Z,29.4012,-89.0355,1018.26,11111222 
WAVCIS,ioos:station:WAVCIS:CSI16:1,2009-07-11T12:00:00Z,29.4012,-89.0355,1018.88,11111222 
WAVCIS,ioos:station:WAVCIS:CSI16:1,2009-07-11T13:00:00Z,29.4012,-89.0355,1019.3,11111222 
WAVCIS,ioos:station:WAVCIS:CSI16:1,2009-07-11T14:00:00Z,29.4012,-89.0355,1019.84,11111222 
WAVCIS,ioos:station:WAVCIS:CSI16:1,2009-07-11T15:00:00Z,29.4012,-89.0355,1019.82,11111222 
WAVCIS,ioos:station:WAVCIS:CSI16:1,2009-07-11T16:00:00Z,29.4012,-89.0355,1019.82,11111222 
WAVCIS,ioos:station:WAVCIS:CSI16:1,2009-07-11T17:00:00Z,29.4012,-89.0355,1020.26,11111222 
WAVCIS,ioos:station:WAVCIS:CSI16:1,2009-07-11T18:00:00Z,29.4012,-89.0355,1020.13,11111222 
WAVCIS,ioos:station:WAVCIS:CSI16:1,2009-07-11T19:00:00Z,29.4012,-89.0355,1019.39,11111222 
WAVCIS,ioos:station:WAVCIS:CSI16:1,2009-07-11T20:00:00Z,29.4012,-89.0355,1019.22,11111222 
WAVCIS,ioos:station:WAVCIS:CSI16:1,2009-07-11T21:00:00Z,29.4012,-89.0355,1018.56,11111222 
WAVCIS,ioos:station:WAVCIS:CSI16:1,2009-07-11T22:00:00Z,29.4012,-89.0355,1018.01,11111222 